User: anonymous   Login
Location: Mason Neck State Park
(38.6428°N, 77.1981°W)
Time: 22:38:51
(UTC-05:00)
Language:

Cosmos 1400 Rocket - Orbit

View from above orbital plane
View from above orbital plane
View from above satellite
View from above satellite

Ground track
Ground track

The orbit data is extracted from the following two-line orbital elements,

1 13403U 82079B   17021.80378960 -.00000016  00000-0 -26705-5 0  9993
2 13403  81.1681  76.9984 0035055  42.5811 317.8120 15.06460328874680
Epoch (UTC): 21 January 2017 19:17:27
Eccentricity: 0.0035055
inclination: 81.1681°
perigee height: 523 km
apogee height: 571 km
right ascension of ascending node: 76.9984°
argument of perigee: 42.5811°
revolutions per day: 15.06460328
mean anomaly at epoch: 317.8120°
orbit number at epoch: 87468

The dashed part of the orbit path shows where the satellite is in the earth's shadow,  

DLR